Lid_Strength_Index
14 15 14 15 15 16 16 17 17 17 18 18 18 18 18 18 18 19 19 19 19 19 19 19 19 19 20 20 20 20 20 20 22 20 20 19 19 19 17 17 16 16 15
14 15 15 15 16 16 17 17 17 18 18 18 18 18 19 19 19 19 19 19 19 19 19 19 20 19 20 20 20 20 20 20 21 22 20 20 19 18 17 18 16 15 15
15 15 15 16 17 17 17 18 18 18 19 19 18 19 19 19 19 19 19 19 19 19 19 19 19 19 20 20 21 21 21 19 20 21 21 19 18 18 17 16 16 16 14
15 15 16 16 16 17 17 18 18 19 19 19 18 19 19 19 19 19 19 19 19 18 18 18 19 19 19 20 20 20 20 20 20 20 20 20 19 17 17 18 17 15 15
16 16 16 16 16 17 18 18 18 19 19 19 19 19 19 19 19 19 19 19 18 18 18 18 18 18 16 17 19 19 19 20 20 20 20 20 19 18 18 16 16 15 15
15 16 16 16 17 17 18 18 19 19 19 19 19 19 20 19 16 16 18 18 17 18 18 18 18 17 17 14 14 14 16 19 24 23 20 19 17 16 16 16 15 15 17
15 16 16 16 17 18 18 18 18 19 19 19 19 19 19 19 15 15 15 17 17 18 18 17 17 17 17 18 15 13 12 12 12 17 20 17 15 14 14 14 14 15 16
16 16 16 16 17 18 18 18 18 19 19 19 19 18 18 19 14 13 13 17 17 17 17 17 17 17 17 17 17 17 17 16 15 14 14 14 13 12 12 12 13 16 15
16 17 17 16 17 18 18 18 18 19 19 19 18 18 18 18 14 13 13 16 16 17 17 17 16 16 15 13 15 17 17 15 13 10 9 8 7 7 7 12 21 22 17
16 16 16 16 16 17 17 17 18 18 18 18 18 18 17 17 13 12 12 15 16 16 16 16 14 15 13 12 14 16 17 15 14 13 12 11 9 12 9 11 13 18 17
16 16 16 16 17 16 16 17 17 17 18 18 18 18 17 16 15 11 12 15 14 15 15 15 15 12 11 11 11 13 13 12 11 11 12 13 14 14 13 13 12 13 15
16 16 16 16 16 16 16 16 17 17 18 18 18 19 18 17 15 13 11 10 12 14 14 14 15 12 11 10 10 9 8 7 9 12 15 16 16 15 14 13 12 12 12
15 15 15 15 15 15 16 16 16 16 17 17 17 17 18 18 17 12 12 11 10 11 13 14 12 11 10 9 8 7 8 9 11 15 15 15 14 13 13 14 13 13 13
15 15 15 15 15 14 14 14 15 15 16 16 16 16 16 18 17 17 16 15 15 15 16 17 15 11 10 10 14 12 12 11 11 12 12 12 13 15 16 15 17 17 18
14 14 14 13 14 15 16 14 14 15 13 14 15 14 18 18 18 16 17 19 20 17 19 22 21 18 18 18 19 18 17 17 15 14 13 14 15 15 16 16 16 20 21
16 15 15 16 16 17 18 19 15 15 15 14 14 17 20 15 13 12 12 12 11 10 17 21 23 21 20 19 19 18 17 16 15 14 14 15 15 16 17 17 16 21 21
20 21 19 18 18 18 18 18 18 15 13 13 13 13 14 13 11 11 10 11 13 17 26 29 27 25 25 22 23 22 20 18 17 17 16 16 16 17 17 18 18 18 18
23 22 21 21 21 20 20 20 17 16 17 21 14 13 12 12 12 12 12 17 26 27 32 32 31 30 28 27 26 25 23 21 21 20 19 18 18 18 19 20 19 20 19
23 24 24 24 24 23 22 23 23 22 23 26 25 23 23 13 13 15 18 27 31 32 34 34 34 33 31 31 29 27 25 26 25 26 26 23 20 21 22 21 20 19 18
26 24 24 24 24 24 24 24 26 26 26 27 29 30 32 26 29 32 35 35 34 34 36 35 35 35 35 34 31 31 32 31 30 30 27 26 25 22 21 22 20 19 19
25 26 25 26 26 26 26 25 26 26 27 27 27 26 21 26 29 32 33 36 35 37 36 36 36 36 36 35 35 34 33 30 30 28 26 27 27 26 22 20 20 19 19
27 27 27 27 26 26 28 27 26 26 26 25 28 30 15 31 33 31 33 35 37 36 36 36 36 35 33 33 33 34 32 31 32 30 26 26 26 24 22 21 20 19 20
27 28 28 29 28 27 28 30 28 27 27 27 27 29 32 33 33 36 36 37 39 38 38 38 36 34 34 33 34 31 30 28 28 28 25 27 26 24 22 22 21 21 21
27 27 28 30 30 29 30 31 30 29 29 31 32 32 30 32 36 36 36 36 38 36 38 37 35 33 33 32 34 34 31 28 30 25 25 23 25 24 22 22 22 22 22
29 28 28 28 27 27 27 28 28 31 31 29 30 29 28 30 34 33 33 36 35 36 33 33 33 32 30 29 31 32 31 23 27 27 29 29 28 27 24 27 26 32 30
27 26 27 26 28 29 29 27 28 26 26 25 25 25 26 28 28 28 31 33 31 31 31 31 31 29 29 28 28 26 25 21 23 24 27 28 28 27 31 32 36 35 32